Flag for Germany Weather past 2 weeks in Homburg (Saar), Saarland, Germany

Now
54 °F

Clear.


Feels Like: 51 °F
Forecast: 43 / 67 °F
Wind: 9 mph from Northeast

Location: Saarbruecken / Ensheim


UV Index: 3 (Moderate)

Visibility: 10 mi


Pressure: 29.83 "Hg

Humidity: 77%

Dew point: 46 °F

Location of Homburg (Saar)Location

Historic Weather in Homburg (Saar)

°F

Homburg (Saar) temperature yesterday

Maximum temperature yesterday: 72 °F (at 3:20 PM)
Minimum temperature yesterday: 52 °F (at 5:20 AM)
Average temperature yesterday: 60 °F

Past Weeks' High & Low Weather Summary

 TemperatureHumidityPressure
High72 °F (Apr 24, 3:20 PM)88% (Apr 22, 12:50 AM)30.39 "Hg (Apr 22, 12:50 AM)
Low34 °F (Apr 15, 4:50 AM)22% (Apr 17, 5:20 PM)29.62 "Hg (Apr 21, 5:50 AM)
Average52 °F62%30.01 "Hg
* Reported Apr 10 6:20 AM — Apr 25 6:50 AM, Homburg (Saar), Weather by CustomWeather, © 2014

Note: Actual official high and low records may vary slightly from our data, if they occured in-between our weather recording intervals... More about our weather records

Advertising

Historic Weather Conditions — Data for Previous 24 hours

 ConditionsComfort  
Time TempWeatherWind HumidityBarometerVisibility
6:50 AM
Apr 25
52 °FClear.10 mph77%29.83 "Hg10 mi
6:20 AM52 °FClear.8 mph77%29.83 "Hg10 mi
5:50 AM52 °FClear.9 mph72%29.83 "Hg10 mi
5:20 AM54 °FClear.10 mph67%29.83 "Hg10 mi
4:50 AM54 °FClear.8 mph67%29.83 "Hg10 mi
4:20 AM54 °FClear.8 mph67%29.86 "Hg10 mi
3:50 AM55 °FClear.7 mph63%29.86 "Hg10 mi
3:20 AM55 °FClear.6 mph63%29.86 "Hg10 mi
2:50 AM55 °FClear.7 mph63%29.86 "Hg10 mi
2:20 AM57 °FClear.10 mph63%29.86 "Hg10 mi
1:20 AM59 °FClear.7 mph55%29.89 "Hg10 mi
12:50 AM59 °FClear.9 mph55%29.89 "Hg10 mi
12:20 AM59 °FClear.9 mph55%29.89 "Hg10 mi
11:50 PM
Apr 24
59 °FClear.8 mph59%29.89 "Hg10 mi
11:20 PM59 °FClear.6 mph59%29.89 "Hg10 mi
10:50 PM59 °FClear.9 mph59%29.92 "Hg10 mi
10:20 PM61 °FClear.7 mph55%29.92 "Hg10 mi
9:50 PM61 °FClear.5 mph55%29.92 "Hg10 mi
9:20 PM61 °FSunny.6 mph55%29.92 "Hg10 mi
8:50 PM61 °FPassing clouds.5 mph55%29.92 "HgN/A
8:20 PM64 °FSunny.7 mph49%29.92 "Hg10 mi
7:50 PM64 °FSunny.6 mph46%29.92 "Hg10 mi
7:20 PM66 °FPartly sunny.6 mph46%29.92 "HgN/A
6:50 PM68 °FSunny.7 mph43%29.95 "Hg10 mi
6:20 PM70 °FSunny.6 mph38%29.95 "Hg10 mi
5:50 PM72 °FSunny.6 mph38%29.95 "Hg10 mi
5:20 PM70 °FPartly sunny.6 mph43%29.95 "HgN/A
4:50 PM70 °FPartly sunny.6 mph40%29.95 "HgN/A
4:20 PM72 °FBroken clouds.6 mph33%29.98 "HgN/A
3:50 PM72 °FScattered clouds.8 mph31%29.98 "HgN/A
3:20 PM72 °FThundershowers. Scattered clouds.7 mph36%30.01 "HgN/A
2:50 PM70 °FThundershowers. Partly sunny.3 mph40%30.01 "HgN/A
2:20 PM68 °FScattered clouds.1 mph46%30.01 "HgN/A
1:50 PM70 °FPassing clouds.5 mph43%30.04 "HgN/A
1:20 PM68 °FScattered clouds.5 mph49%30.04 "HgN/A
12:50 PM66 °FScattered clouds.6 mph60%30.04 "HgN/A
12:20 PM64 °FScattered clouds.7 mph60%30.07 "HgN/A
11:50 AM64 °FScattered clouds.7 mph64%30.07 "HgN/A
11:20 AM63 °FPartly sunny.3 mph64%30.09 "HgN/A
10:50 AM59 °FPartly sunny.7 mph72%30.09 "HgN/A
10:20 AM57 °FBroken clouds.5 mph77%30.09 "HgN/A
9:20 AM55 °FPartly sunny.5 mph82%30.09 "HgN/A
8:50 AM54 °FBroken clouds.5 mph88%30.09 "HgN/A
8:20 AM54 °FSunny.5 mph88%30.09 "Hg10 mi
7:50 AM54 °FSunny.6 mph82%30.07 "Hg10 mi
7:20 AM52 °FClear.2 mph88%30.07 "Hg10 mi
Weather by CustomWeather, © 2014

See weather overview